This demonstration page uses our WeatherBlox Daily Observations layout. Learn more.

Left ArrowRight Arrow

53.62937, 11.41316

Hourly Observations for January 1, 2018

Temp ( °F °C ) Dew Point ( °F °C ) Humidity (%) Winds ( mph kmh ) Pressure ( in mb ) Visibility ( mi km ) Precip ( " mm )
12:20 am 00:20 Mostly Cloudy with Light Rain 48 9 46 8 94 94 S 5 7 29.32 993 4 7 N/A
1:20 am 01:20 Mostly Cloudy with Rain 48 9 48 9 100 100 SSW 8 13 29.32 993 4 6 N/A
1:50 am 01:50 Mostly Cloudy with Light Rain 48 9 48 9 100 100 SW 8 13 29.32 993 30 48 N/A
2:20 am 02:20 Mostly Cloudy 48 9 46 8 94 94 W 10 17 29.32 993 30 48 N/A
3:20 am 03:20 Mostly Cloudy 46 8 45 7 93 93 SW 9 15 29.32 993 30 48 N/A
4:20 am 04:20 Mostly Cloudy 48 9 45 7 87 87 WSW 13 20 29.35 994 30 48 N/A
4:49 am 04:49 Mostly Cloudy 48 9 45 7 87 87 WSW 13 20 29.32 993 30 48 N/A
5:20 am 05:20 Mostly Cloudy 46 8 43 6 87 87 WSW 14 22 29.35 994 30 48 N/A
6:20 am 06:20 Mostly Cloudy 46 8 43 6 87 87 SW 12 19 29.35 994 30 48 N/A
7:20 am 07:20 Mostly Cloudy 46 8 41 5 82 82 SW 14 22 29.35 994 30 48 N/A
8:20 am 08:20 Mostly Cloudy 46 8 39 4 76 76 SW 14 22 29.35 994 30 48 N/A
9:20 am 09:20 Mostly Cloudy 46 8 39 4 76 76 SW 15 24 29.38 995 30 48 N/A
10:20 am 10:20 Windy with Rain Showers Likely 45 7 39 4 81 81 WSW 21 33 29.41 996 30 48 N/A
11:20 am 11:20 Mostly Cloudy with Light Showers 45 7 39 4 81 81 W 14 22 29.41 996 30 48 N/A
11:48 am 11:48 Mostly Cloudy with Showers Nearby 43 6 39 4 87 87 W 21 33 29.44 997 30 48 N/A
12:20 pm 12:20 Mostly Cloudy 45 7 36 2 71 71 WSW 17 28 29.44 997 30 48 N/A
1:20 pm 13:20 Mostly Cloudy 45 7 36 2 71 71 WSW 16 26 29.44 997 30 48 N/A
2:20 pm 14:20 Partly Cloudy 45 7 36 2 71 71 WSW 13 20 29.44 997 30 48 N/A
3:20 pm 15:20 Mostly Cloudy 45 7 36 2 71 71 SW 10 17 29.44 997 30 48 N/A
4:04 pm 16:04 Partly Cloudy 43 6 34 1 71 71 SW 10 17 29.47 998 30 48 N/A
4:20 pm 16:20 Mostly Cloudy 43 6 36 2 76 76 SW 8 13 29.47 998 30 48 N/A
5:20 pm 17:20 Mostly Cloudy 43 6 36 2 76 76 SW 8 13 29.47 998 30 48 N/A
6:20 pm 18:20 Mostly Cloudy 43 6 36 2 76 76 WSW 12 19 29.47 998 30 48 N/A
7:20 pm 19:20 Partly Cloudy 43 6 36 2 76 76 SW 8 13 29.47 998 30 48 N/A
8:20 pm 20:20 Mostly Clear 41 5 36 2 81 81 SW 9 15 29.47 998 30 48 N/A
9:20 pm 21:20 Mostly Cloudy 41 5 36 2 81 81 SW 8 13 29.47 998 30 48 N/A
10:20 pm 22:20 Mostly Cloudy 39 4 36 2 87 87 SSW 7 11 29.50 999 30 48 N/A
11:20 pm 23:20 Mostly Cloudy 37 3 34 1 87 87 S 7 11 29.50 999 30 48 N/A

Powered by AerisWeather